Weather in Bolshaya Brembola

Russia / Yaroslavl Oblast     56°44′40″N   38°54′47″E
temp.,
°C
wind,
m/s
gust,
m/s
humid.,
%
clouds,
%
prec.,
mm/h
press.,
hPa
HPBL,
m
11 april, sun
sun1100:00+2ssw513755 0.0 1025226
03:00+1ssw411803 0.0 1025185
06:000sw310855 0.0 1026148
09:00+4sw249615 0.0 1028146
12:00+9sw25775 0.0 1029537
15:00+12sw355857 0.0 10291461
18:00+10s337339 0.0 103044
21:00+7s357824 0.0 103270
12 april, mon
mon1200:00+5s36815 0.0 103378
03:00+4s22815 0.0 103416
06:00+3se23835 0.0 103535
09:00+8se4771100 0.0 1035278
12:00+11ese61064100 0.0 1035710
15:00+12ese61061100 0.0 1033900
18:00+10ese61169100 0.0 1031646
21:00+8se51280100 0.0 1031450
13 april, tue
tue1300:00+6se4108899 0.1 1030275
03:00+5se399699 0.1 1029178
06:00+5se31095100 0.0 1028177
09:00+12s5116962 0.0 1026347
12:00+17s61047100 0.0 1026858
15:00+18s5842100 0.0 10251185
18:00+15s3854100 0.0 1024172
21:00+11s3764100 0.0 102593
14 april, wed
wed1400:00+9s396962 0.0 1024129
03:00+8s397065 0.0 1024128
06:00+8s49764 0.0 1023139
09:00+13s5105898 0.0 1023322
12:00+17s5845100 0.0 1022664
15:00+18s564035 0.0 1021989
18:00+16sse354852 0.0 1020101
21:00+12s3461100 0.0 102042
15 april, thu
thu1500:00+10s346495 0.0 101954
03:00+9s3370100 0.0 101936
06:00+8s1272100 0.0 101920
09:00+12sse1261100 0.0 1018197
12:00+16sse1247100 0.0 1018733
15:00+17nnw2244100 0.0 10171329
18:00+13nne6967100 0.0 1018461
21:00+8nne61181100 0.0 1020485